Location: ActonStarParty
(42.4766°N, 71.4538°W)
Time: 20:00:01
(UTC-04:00)

ISS - Visible Passes

Search period start: 21 October 2014 00:00
Search period end: 31 October 2014 00:00
Orbit: 413 x 416 km, 51.6° (Epoch: 21 October)

Date Brightness Start Highest point End Pass type
(mag) Time Alt. Az. Time Alt. Az. Time Alt. Az.
21 Oct -1.8 18:54:50 10° NW 18:57:40 25° NNE 18:59:06 19° NE visible
21 Oct -0.2 20:31:18 10° WNW 20:31:58 15° WNW 20:31:58 15° WNW visible
22 Oct -2.7 19:42:14 10° NW 19:44:58 53° NNW 19:44:58 53° NNW visible
23 Oct -2.7 18:53:12 10° NW 18:56:25 43° NNE 18:58:03 24° E visible
23 Oct -0.1 20:30:08 10° WNW 20:30:55 15° W 20:30:55 15° W visible
24 Oct -2.5 19:40:45 10° WNW 19:43:58 46° SW 19:44:04 46° SSW visible
25 Oct -3.3 18:51:29 10° WNW 18:54:50 82° SW 18:57:21 16° SE visible
26 Oct -0.7 19:39:40 10° W 19:41:59 18° SW 19:43:42 13° SSW visible
27 Oct -1.4 18:49:55 10° WNW 18:52:53 30° SW 18:55:51 10° SSE visible
29 Oct 0.0 18:49:21 10° WSW 18:50:36 12° SW 18:51:50 10° SSW visible
